Home   Weather   Cheyenne   Past weeks

Flag for USA Past Weather in Cheyenne, Wyoming, USA — Yesterday and Last 2 Weeks

Now
-8 °F

Sunny.


Feels Like: -24 °F
Forecast: -11 / 12 °F
Wind: 8 mph from West

Location: Cheyenne Airport

Current Time: Dec 8, 2016 at 9:16:38 am

Latest Report: Dec 8, 2016 at 7:53 am


Visibility: 10 mi

Pressure: 30.77 "Hg (23.90 "Hg at 1855m altitude)

Humidity: 74%

Dew Point: -14 °F

Location of CheyenneLocation

Past Weather in Cheyenne — Graph

°F

Cheyenne Temperature Yesterday

Maximum temperature yesterday: 7 °F (at 12:53 am)
Minimum temperature yesterday: -13 °F (at 11:53 pm)
Average temperature yesterday: -1 °F

High & Low Weather Summary for the Past Weeks

 TemperatureHumidityPressure
High58 °F (Nov 26, 12:53 pm)92% (Dec 2, 11:53 pm)30.77 "Hg (Dec 2, 11:53 pm)
Low-15 °F (Dec 8, 1:53 am)6% (Nov 26, 12:53 pm)29.26 "Hg (Nov 27, 2:53 pm)
Average27 °F51%29.99 "Hg
* Reported Nov 23 7:53 am — Dec 8 7:53 am, Cheyenne, Weather by CustomWeather, © 2016

Note: Actual official high and low records may vary slightly from our data, if they occured in-between our weather recording intervals... More about our weather records

Advertising

Cheyenne Weather History for the Previous 24 Hours

Scroll right to see more
 ConditionsComfort  
Time TempWeatherWind HumidityBarometerVisibility
7:53 am
Thu, Dec 8
-8 °FSunny.8 mph74%30.77 "Hg10 mi
6:53 am-12 °FClear.6 mph77%30.77 "Hg10 mi
5:53 am-14 °FClear.7 mph78%30.77 "Hg10 mi
4:53 am-14 °FClear.8 mph78%30.75 "Hg10 mi
3:53 am-14 °FClear.8 mph78%30.73 "Hg10 mi
2:53 am-13 °FClear.6 mph78%30.71 "Hg10 mi
1:53 am-15 °FClear.6 mph82%30.73 "Hg10 mi
12:53 am-13 °FPassing clouds.No wind78%30.72 "Hg10 mi
11:53 pm
Wed, Dec 7
-13 °FPassing clouds.5 mph78%30.73 "Hg10 mi
10:53 pm-12 °FClear.6 mph77%30.73 "Hg10 mi
9:53 pm-11 °FClear.No wind78%30.73 "Hg10 mi
8:53 pm-11 °FClear.3 mph78%30.71 "Hg10 mi
7:53 pm-11 °FClear.7 mph78%30.70 "Hg10 mi
6:53 pm-7 °FClear.5 mph83%30.66 "Hg10 mi
5:53 pm-4 °FClear.3 mph83%30.63 "Hg10 mi
4:53 pm0 °FClear.6 mph75%30.57 "Hg10 mi
3:53 pm4 °FSunny.10 mph66%30.52 "Hg10 mi
2:53 pm6 °FSunny.14 mph63%30.48 "Hg10 mi
1:53 pm6 °FSunny.15 mph63%30.45 "Hg10 mi
12:53 pm4 °FPassing clouds.14 mph69%30.45 "Hg10 mi
11:53 am5 °FBroken clouds.12 mph66%30.43 "Hg9 mi
10:53 am4 °FPartly sunny.10 mph66%30.42 "Hg10 mi
10:03 am2 °FMostly cloudy.9 mph69%30.12 "Hg3 mi
Weather by CustomWeather, © 2016

See weather overviewHow to use our weather pages